Hourly Data Report for August 15, 2017

QUALICUM BEACH AIRPORT
BRITISH COLUMBIA

49°20'14.000" N
124°23'38.000" W
58.20 m
1026562
71766
VOQ

Download Data

Hourly Data (August 2017)
Hourly Data Report for August 15, 2017
TIME
LST
Temp Definition
°C
Dew Point Definition
°C
Rel Hum Definition
%
Precip. Amount Definition
mm

Wind Dir Definition
10's deg

Wind Spd Definition
km/h
Visibility Definition
km
Stn Press Definition
kPa
Hmdx Definition


Wind Chill Definition


Weather Definition


00:00 14.4 11.3 82 0.0 29 2   100.67     LegendNANA
01:00 14.5 11.1 80 0.0 27 4   100.68     LegendNANA
02:00 13.4 10.6 83 0.0 26 6   100.68     LegendNANA
03:00 12.9 10.3 84 0.0 29 3   100.70     LegendNANA
04:00 11.9 9.9 88 0.0 25 3   100.71     LegendNANA
05:00 11.3 9.3 87 0.0 27 2   100.74     LegendNANA
06:00 11.4 9.0 85 0.0 25 3   100.76     LegendNANA
07:00 16.2 9.1 63 0.0 28 6   100.78     LegendNANA
08:00 17.3 8.3 55 0.0 30 11   100.82     LegendNANA
09:00 17.7 8.4 54 0.0 31 11   100.84     LegendNANA
10:00 18.5 8.7 53 0.0 33 11   100.85     LegendNANA
11:00 20.1 9.7 51 0.0 32 15   100.86     LegendNANA
12:00 19.0 9.5 54 0.0 34 11   100.85     LegendNANA
13:00 20.3 8.8 48 0.0 2 8   100.81     LegendNANA
14:00 21.6 8.6 43 0.0 33 10   100.81     LegendNANA
15:00 22.7 7.8 38 0.0 34 8   100.78     LegendNANA
16:00 22.0 7.6 39 0.0 33 11   100.78     LegendNANA
17:00 23.0 8.0 38 0.0 30 10   100.76     LegendNANA
18:00 22.7 8.3 40 0.0 31 8   100.77     LegendNANA
19:00 22.4 8.5 41 0.0 29 5   100.76     LegendNANA
20:00 18.6 9.7 56 0.0 27 4   100.81     LegendNANA
21:00 17.3 9.7 61 0.0 24 3   100.83     LegendNANA
22:00 17.6 9.9 61 0.0 25 6   100.86     LegendNANA
23:00 14.6 10.3 75 0.0 17 2   100.87     LegendNANA

Notes on Data Quality.

Legend

  • E = Estimated
  • M = Missing
  • NA = Not Available*
  • [empty] = Indicates an unobserved value
Date modified: